QPF
0.02 0.01 0.01 0.01 0.01 0.01 0.01 0.01 0.01 0.01 0.03 0.04 0.03 0.02 0.03 0.02 0.02 0.03 0.07 0.10 0.07 0.04 0.03 0.02 0.01 0.01 0.01 0.01 0.01 0.00 0.00 0.00 0.01 0.01 0.01 0.02 0.02 0.01 0.01 0.01 0.01 0.01 0.02 0.01
0.01 0.01 0.01 0.01 0.01 0.01 0.01 0.01 0.01 0.01 0.02 0.02 0.01 0.02 0.02 0.01 0.03 0.05 0.07 0.06 0.04 0.04 0.04 0.02 0.01 0.01 0.01 0.01 0.01 0.01 0.01 0.01 0.01 0.01 0.02 0.02 0.03 0.02 0.02 0.01 0.00 0.01 0.01 0.01
0.01 0.01 0.01 0.02 0.01 0.01 0.01 0.01 0.01 0.02 0.01 0.02 0.02 0.02 0.01 0.01 0.03 0.06 0.06 0.06 0.03 0.02 0.01 0.01 0.01 0.01 0.01 0.01 0.02 0.03 0.03 0.03 0.03 0.03 0.04 0.04 0.04 0.03 0.02 0.01 0.01 0.01 0.01 0.02
0.01 0.01 0.01 0.01 0.01 0.01 0.01 0.01 0.02 0.02 0.01 0.01 0.01 0.01 0.01 0.01 0.03 0.08 0.07 0.06 0.04 0.02 0.01 0.01 0.01 0.01 0.01 0.02 0.03 0.03 0.04 0.04 0.04 0.04 0.05 0.05 0.05 0.04 0.03 0.02 0.02 0.02 0.03 0.04
0.02 0.02 0.02 0.02 0.02 0.02 0.01 0.02 0.02 0.02 0.02 0.03 0.05 0.03 0.02 0.02 0.05 0.06 0.07 0.06 0.04 0.02 0.01 0.01 0.01 0.01 0.01 0.02 0.03 0.04 0.05 0.06 0.08 0.08 0.06 0.07 0.08 0.07 0.07 0.05 0.04 0.04 0.04 0.04
0.01 0.01 0.02 0.03 0.04 0.04 0.04 0.03 0.02 0.02 0.02 0.03 0.02 0.02 0.03 0.05 0.08 0.07 0.09 0.09 0.06 0.03 0.02 0.01 0.01 0.01 0.01 0.02 0.03 0.05 0.08 0.13 0.13 0.13 0.14 0.16 0.16 0.13 0.10 0.08 0.07 0.06 0.05 0.04
0.01 0.01 0.02 0.01 0.03 0.04 0.06 0.05 0.03 0.03 0.01 0.01 0.02 0.02 0.03 0.04 0.07 0.08 0.09 0.07 0.04 0.02 0.01 0.01 0.00 0.00 0.00 0.02 0.03 0.04 0.06 0.09 0.10 0.12 0.12 0.10 0.09 0.11 0.11 0.09 0.08 0.07 0.05 0.04
0.01 0.02 0.01 0.01 0.01 0.02 0.05 0.08 0.05 0.02 0.02 0.01 0.02 0.03 0.04 0.08 0.12 0.11 0.08 0.04 0.02 0.01 0.01 0.01 0.01 0.01 0.01 0.02 0.03 0.05 0.05 0.05 0.06 0.05 0.05 0.05 0.04 0.05 0.06 0.06 0.06 0.05 0.04 0.04
0.01 0.01 0.01 0.01 0.01 0.03 0.04 0.04 0.04 0.02 0.02 0.03 0.03 0.02 0.04 0.06 0.07 0.07 0.06 0.02 0.01 0.01 0.01 0.01 0.01 0.01 0.01 0.02 0.03 0.03 0.03 0.03 0.03 0.03 0.03 0.02 0.02 0.02 0.03 0.03 0.02 0.02 0.03 0.04
0.01 0.01 0.01 0.01 0.01 0.02 0.07 0.06 0.03 0.02 0.03 0.05 0.03 0.03 0.03 0.04 0.04 0.04 0.05 0.03 0.03 0.02 0.02 0.01 0.01 0.02 0.02 0.02 0.01 0.02 0.02 0.02 0.02 0.03 0.03 0.03 0.03 0.03 0.02 0.02 0.02 0.02 0.02 0.02
0.01 0.01 0.01 0.01 0.01 0.01 0.03 0.06 0.05 0.04 0.04 0.05 0.05 0.04 0.04 0.04 0.04 0.04 0.04 0.04 0.03 0.02 0.01 0.01 0.01 0.01 0.02 0.01 0.01 0.01 0.01 0.02 0.03 0.03 0.03 0.04 0.04 0.04 0.02 0.01 0.01 0.01 0.01 0.01
0.02 0.02 0.02 0.01 0.01 0.01 0.02 0.03 0.04 0.05 0.06 0.06 0.06 0.05 0.04 0.04 0.04 0.03 0.03 0.03 0.03 0.02 0.01 0.01 0.01 0.01 0.01 0.01 0.01 0.01 0.01 0.02 0.03 0.03 0.03 0.04 0.04 0.03 0.02 0.02 0.01 0.01 0.01 0.01
0.02 0.01 0.01 0.02 0.02 0.02 0.02 0.02 0.04 0.04 0.04 0.03 0.03 0.04 0.05 0.06 0.05 0.03 0.03 0.02 0.02 0.02 0.02 0.02 0.02 0.02 0.01 0.01 0.01 0.01 0.01 0.02 0.03 0.03 0.03 0.04 0.04 0.03 0.03 0.02 0.02 0.02 0.02 0.02
0.01 0.01 0.02 0.03 0.03 0.03 0.02 0.03 0.05 0.06 0.07 0.06 0.04 0.04 0.05 0.06 0.09 0.07 0.05 0.04 0.03 0.02 0.02 0.02 0.02 0.02 0.01 0.02 0.02 0.02 0.02 0.03 0.03 0.04 0.04 0.04 0.04 0.03 0.03 0.03 0.02 0.02 0.01 0.01
0.01 0.02 0.02 0.02 0.02 0.02 0.03 0.03 0.03 0.04 0.04 0.04 0.04 0.03 0.03 0.03 0.06 0.09 0.07 0.06 0.06 0.04 0.03 0.03 0.03 0.03 0.03 0.03 0.03 0.05 0.05 0.06 0.06 0.06 0.05 0.05 0.05 0.05 0.04 0.03 0.03 0.02 0.02 0.02
0.02 0.02 0.02 0.02 0.02 0.02 0.02 0.02 0.02 0.03 0.04 0.03 0.03 0.03 0.03 0.03 0.03 0.04 0.05 0.05 0.06 0.06 0.05 0.05 0.05 0.05 0.04 0.04 0.05 0.06 0.06 0.10 0.13 0.11 0.10 0.08 0.08 0.08 0.07 0.05 0.03 0.02 0.02 0.02
0.04 0.03 0.03 0.03 0.02 0.02 0.02 0.03 0.02 0.02 0.02 0.02 0.02 0.03 0.03 0.03 0.03 0.02 0.02 0.03 0.03 0.03 0.03 0.03 0.03 0.03 0.03 0.03 0.04 0.05 0.06 0.08 0.14 0.14 0.10 0.09 0.09 0.08 0.07 0.06 0.05 0.03 0.02 0.02
0.05 0.04 0.04 0.04 0.04 0.05 0.05 0.03 0.03 0.02 0.02 0.02 0.02 0.03 0.04 0.05 0.05 0.04 0.03 0.03 0.03 0.03 0.02 0.02 0.02 0.02 0.02 0.02 0.02 0.02 0.02 0.03 0.04 0.06 0.06 0.06 0.06 0.07 0.06 0.05 0.04 0.04 0.03 0.02
0.05 0.05 0.05 0.06 0.07 0.07 0.09 0.07 0.03 0.03 0.02 0.02 0.02 0.02 0.04 0.07 0.06 0.05 0.04 0.04 0.03 0.03 0.03 0.03 0.03 0.02 0.02 0.02 0.02 0.02 0.03 0.03 0.03 0.03 0.03 0.03 0.03 0.03 0.03 0.03 0.03 0.04 0.04 0.04
0.09 0.06 0.05 0.07 0.08 0.07 0.06 0.05 0.03 0.02 0.02 0.02 0.02 0.02 0.02 0.03 0.04 0.04 0.04 0.05 0.05 0.05 0.06 0.04 0.03 0.03 0.02 0.03 0.03 0.03 0.03 0.03 0.03 0.02 0.02 0.02 0.02 0.02 0.02 0.03 0.03 0.02 0.03 0.03
0.11 0.08 0.06 0.06 0.06 0.04 0.03 0.02 0.01 0.02 0.02 0.02 0.02 0.02 0.02 0.02 0.03 0.04 0.04 0.05 0.07 0.07 0.05 0.04 0.03 0.03 0.03 0.02 0.03 0.03 0.03 0.03 0.03 0.02 0.02 0.02 0.02 0.02 0.03 0.03 0.02 0.02 0.02 0.02
0.08 0.07 0.05 0.05 0.04 0.03 0.03 0.02 0.01 0.01 0.01 0.02 0.03 0.02 0.02 0.02 0.03 0.03 0.04 0.06 0.05 0.04 0.04 0.04 0.04 0.04 0.03 0.03 0.03 0.02 0.02 0.01 0.02 0.02 0.02 0.01 0.02 0.02 0.02 0.02 0.02 0.03 0.02 0.01
0.08 0.06 0.04 0.03 0.03 0.03 0.04 0.03 0.02 0.01 0.02 0.02 0.02 0.02 0.03 0.03 0.03 0.04 0.05 0.05 0.04 0.03 0.03 0.03 0.03 0.02 0.02 0.02 0.02 0.02 0.03 0.04 0.03 0.02 0.02 0.02 0.03 0.03 0.02 0.02 0.02 0.03 0.04 0.04
0.09 0.07 0.04 0.03 0.03 0.03 0.03 0.02 0.02 0.02 0.02 0.03 0.02 0.02 0.03 0.04 0.04 0.04 0.05 0.04 0.03 0.02 0.01 0.01 0.01 0.01 0.01 0.02 0.03 0.02 0.03 0.05 0.05 0.03 0.02 0.02 0.02 0.03 0.03 0.02 0.03 0.03 0.03 0.03
0.07 0.06 0.04 0.03 0.03 0.03 0.03 0.02 0.02 0.02 0.02 0.02 0.02 0.02 0.03 0.04 0.04 0.04 0.06 0.04 0.02 0.01 0.01 0.01 0.01 0.01 0.01 0.01 0.02 0.02 0.01 0.01 0.01 0.01 0.01 0.01 0.01 0.02 0.02 0.01 0.01 0.02 0.02 0.01
0.05 0.04 0.04 0.03 0.03 0.03 0.03 0.02 0.03 0.02 0.02 0.02 0.03 0.03 0.03 0.04 0.03 0.04 0.04 0.02 0.02 0.01 0.01 0.01 0.01 0.01 0.01 0.02 0.02 0.02 0.02 0.02 0.01 0.02 0.02 0.02 0.02 0.02 0.02 0.01 0.01 0.01 0.01 0.01
0.05 0.04 0.03 0.02 0.03 0.02 0.03 0.02 0.02 0.02 0.02 0.02 0.03 0.03 0.04 0.04 0.04 0.04 0.03 0.02 0.01 0.01 0.01 0.01 0.02 0.02 0.02 0.03 0.02 0.02 0.03 0.02 0.03 0.03 0.03 0.03 0.03 0.03 0.03 0.03 0.02 0.02 0.02 0.02
MSLP
1012.89 1012.87 1012.84 1012.76 1012.60 1012.30 1011.85 1011.22 1010.43 1009.51 1008.54 1007.58 1006.73 1006.05 1005.59 1005.36 1005.37 1005.56 1005.90 1006.30 1006.70 1007.08 1007.39 1007.63 1007.82 1007.99 1008.16 1008.36 1008.60 1008.89 1009.22 1009.57 1009.91 1010.25 1010.56 1010.84 1011.12 1011.40 1011.71 1012.05 1012.42 1012.83 1013.25 1013.67
1013.28 1013.28 1013.21 1013.06 1012.79 1012.38 1011.82 1011.11 1010.29 1009.38 1008.46 1007.58 1006.80 1006.18 1005.73 1005.48 1005.40 1005.47 1005.64 1005.87 1006.12 1006.36 1006.59 1006.81 1007.03 1007.26 1007.52 1007.82 1008.15 1008.52 1008.89 1009.27 1009.62 1009.95 1010.25 1010.54 1010.82 1011.12 1011.44 1011.80 1012.19 1012.61 1013.03 1013.43
1013.75 1013.78 1013.70 1013.51 1013.18 1012.71 1012.09 1011.35 1010.52 1009.64 1008.75 1007.91 1007.17 1006.55 1006.06 1005.72 1005.50 1005.40 1005.38 1005.42 1005.50 1005.63 1005.79 1006.00 1006.25 1006.57 1006.93 1007.34 1007.78 1008.23 1008.67 1009.07 1009.43 1009.76 1010.05 1010.33 1010.61 1010.92 1011.26 1011.64 1012.05 1012.48 1012.90 1013.30
1014.29 1014.33 1014.26 1014.04 1013.69 1013.18 1012.54 1011.78 1010.96 1010.09 1009.23 1008.40 1007.65 1006.99 1006.42 1005.95 1005.58 1005.29 1005.08 1004.94 1004.88 1004.91 1005.03 1005.25 1005.57 1005.98 1006.46 1006.99 1007.53 1008.06 1008.55 1008.99 1009.36 1009.67 1009.95 1010.22 1010.50 1010.81 1011.16 1011.56 1011.99 1012.43 1012.86 1013.26
1014.83 1014.85 1014.76 1014.52 1014.14 1013.61 1012.96 1012.20 1011.38 1010.53 1009.67 1008.84 1008.05 1007.33 1006.67 1006.07 1005.54 1005.09 1004.72 1004.45 1004.29 1004.26 1004.37 1004.62 1005.01 1005.52 1006.11 1006.75 1007.39 1007.99 1008.53 1008.98 1009.35 1009.65 1009.91 1010.17 1010.43 1010.74 1011.10 1011.51 1011.95 1012.40 1012.84 1013.25
1015.26 1015.22 1015.08 1014.80 1014.39 1013.84 1013.18 1012.42 1011.61 1010.76 1009.90 1009.05 1008.23 1007.45 1006.70 1006.01 1005.37 1004.80 1004.32 1003.96 1003.74 1003.69 1003.82 1004.12 1004.58 1005.18 1005.86 1006.59 1007.30 1007.95 1008.51 1008.98 1009.34 1009.63 1009.88 1010.11 1010.37 1010.67 1011.03 1011.44 1011.89 1012.35 1012.80 1013.21
1015.48 1015.35 1015.13 1014.79 1014.34 1013.77 1013.10 1012.34 1011.53 1010.69 1009.83 1008.98 1008.14 1007.32 1006.52 1005.77 1005.06 1004.43 1003.91 1003.51 1003.28 1003.23 1003.39 1003.73 1004.25 1004.91 1005.65 1006.42 1007.16 1007.84 1008.42 1008.89 1009.25 1009.53 1009.76 1009.99 1010.24 1010.53 1010.89 1011.30 1011.75 1012.21 1012.66 1013.07
1015.43 1015.19 1014.88 1014.48 1013.98 1013.39 1012.71 1011.97 1011.17 1010.35 1009.51 1008.66 1007.82 1007.00 1006.19 1005.43 1004.71 1004.07 1003.54 1003.14 1002.92 1002.89 1003.06 1003.43 1003.96 1004.63 1005.39 1006.16 1006.91 1007.59 1008.17 1008.63 1009.00 1009.28 1009.52 1009.75 1010.00 1010.30 1010.65 1011.06 1011.50 1011.95 1012.39 1012.81
1015.11 1014.76 1014.37 1013.91 1013.38 1012.78 1012.11 1011.39 1010.62 1009.83 1009.02 1008.21 1007.40 1006.61 1005.83 1005.09 1004.40 1003.78 1003.27 1002.90 1002.69 1002.66 1002.82 1003.17 1003.67 1004.31 1005.02 1005.76 1006.48 1007.13 1007.70 1008.17 1008.55 1008.86 1009.13 1009.38 1009.66 1009.97 1010.32 1010.72 1011.15 1011.58 1012.01 1012.41
1014.54 1014.12 1013.68 1013.20 1012.67 1012.08 1011.44 1010.76 1010.04 1009.30 1008.54 1007.78 1007.02 1006.28 1005.55 1004.86 1004.22 1003.65 1003.17 1002.81 1002.59 1002.54 1002.65 1002.93 1003.36 1003.90 1004.53 1005.19 1005.85 1006.47 1007.02 1007.51 1007.92 1008.28 1008.60 1008.91 1009.22 1009.56 1009.93 1010.32 1010.74 1011.15 1011.56 1011.95
1013.79 1013.36 1012.92 1012.46 1011.96 1011.42 1010.84 1010.22 1009.57 1008.88 1008.19 1007.49 1006.80 1006.11 1005.45 1004.82 1004.23 1003.70 1003.24 1002.88 1002.63 1002.52 1002.55 1002.72 1003.02 1003.43 1003.93 1004.49 1005.07 1005.64 1006.19 1006.70 1007.17 1007.60 1008.00 1008.38 1008.76 1009.14 1009.54 1009.93 1010.34 1010.74 1011.13 1011.50
1012.94 1012.55 1012.16 1011.77 1011.35 1010.90 1010.40 1009.86 1009.28 1008.67 1008.04 1007.41 1006.78 1006.16 1005.56 1004.98 1004.43 1003.93 1003.48 1003.10 1002.80 1002.60 1002.51 1002.54 1002.69 1002.94 1003.30 1003.74 1004.23 1004.76 1005.31 1005.85 1006.39 1006.90 1007.40 1007.88 1008.34 1008.78 1009.21 1009.62 1010.02 1010.40 1010.78 1011.13
1012.05 1011.75 1011.46 1011.17 1010.86 1010.51 1010.11 1009.66 1009.17 1008.64 1008.08 1007.51 1006.93 1006.37 1005.82 1005.29 1004.78 1004.30 1003.84 1003.43 1003.07 1002.77 1002.56 1002.44 1002.42 1002.52 1002.73 1003.04 1003.45 1003.94 1004.49 1005.07 1005.68 1006.29 1006.89 1007.46 1008.01 1008.52 1008.99 1009.42 1009.82 1010.20 1010.56 1010.91
1011.16 1010.96 1010.79 1010.62 1010.43 1010.20 1009.91 1009.56 1009.15 1008.69 1008.20 1007.69 1007.17 1006.66 1006.16 1005.67 1005.19 1004.72 1004.26 1003.82 1003.40 1003.02 1002.69 1002.43 1002.27 1002.23 1002.30 1002.51 1002.84 1003.29 1003.84 1004.46 1005.13 1005.82 1006.51 1007.18 1007.80 1008.37 1008.88 1009.34 1009.75 1010.13 1010.48 1010.83
1010.29 1010.20 1010.14 1010.09 1010.02 1009.89 1009.70 1009.44 1009.11 1008.73 1008.30 1007.85 1007.38 1006.92 1006.47 1006.03 1005.59 1005.15 1004.69 1004.24 1003.78 1003.33 1002.92 1002.56 1002.29 1002.13 1002.09 1002.21 1002.48 1002.89 1003.43 1004.07 1004.79 1005.54 1006.30 1007.02 1007.71 1008.32 1008.87 1009.35 1009.77 1010.15 1010.51 1010.86
1009.47 1009.45 1009.48 1009.52 1009.54 1009.51 1009.41 1009.22 1008.97 1008.65 1008.29 1007.89 1007.49 1007.09 1006.70 1006.31 1005.92 1005.52 1005.10 1004.65 1004.18 1003.71 1003.25 1002.83 1002.48 1002.24 1002.13 1002.18 1002.40 1002.77 1003.29 1003.93 1004.66 1005.44 1006.23 1006.99 1007.70 1008.34 1008.91 1009.40 1009.83 1010.21 1010.57 1010.93
1008.75 1008.76 1008.83 1008.92 1008.99 1009.02 1008.98 1008.87 1008.68 1008.43 1008.14 1007.81 1007.48 1007.15 1006.83 1006.51 1006.18 1005.83 1005.46 1005.05 1004.61 1004.14 1003.67 1003.23 1002.85 1002.57 1002.41 1002.41 1002.58 1002.91 1003.40 1004.02 1004.73 1005.50 1006.28 1007.04 1007.75 1008.38 1008.95 1009.43 1009.86 1010.24 1010.61 1010.97
1008.18 1008.17 1008.23 1008.33 1008.42 1008.48 1008.48 1008.42 1008.29 1008.11 1007.89 1007.64 1007.39 1007.14 1006.89 1006.65 1006.39 1006.12 1005.80 1005.45 1005.05 1004.62 1004.18 1003.75 1003.37 1003.07 1002.89 1002.86 1002.99 1003.29 1003.73 1004.30 1004.97 1005.69 1006.43 1007.15 1007.82 1008.43 1008.97 1009.43 1009.85 1010.22 1010.58 1010.93
1007.83 1007.76 1007.77 1007.83 1007.91 1007.97 1008.00 1007.98 1007.91 1007.80 1007.65 1007.49 1007.31 1007.15 1006.98 1006.81 1006.62 1006.41 1006.16 1005.87 1005.52 1005.14 1004.74 1004.35 1003.99 1003.70 1003.53 1003.48 1003.58 1003.84 1004.23 1004.74 1005.33 1005.99 1006.66 1007.31 1007.93 1008.48 1008.97 1009.41 1009.79 1010.15 1010.49 1010.83
1007.77 1007.60 1007.53 1007.53 1007.57 1007.62 1007.66 1007.67 1007.65 1007.61 1007.53 1007.45 1007.36 1007.26 1007.16 1007.05 1006.93 1006.77 1006.57 1006.33 1006.03 1005.70 1005.35 1004.99 1004.67 1004.42 1004.25 1004.20 1004.29 1004.50 1004.84 1005.29 1005.81 1006.38 1006.97 1007.54 1008.08 1008.57 1009.01 1009.39 1009.75 1010.07 1010.39 1010.72
1008.00 1007.72 1007.56 1007.49 1007.48 1007.51 1007.55 1007.59 1007.62 1007.63 1007.63 1007.61 1007.58 1007.54 1007.49 1007.43 1007.34 1007.21 1007.05 1006.83 1006.57 1006.28 1005.97 1005.66 1005.38 1005.16 1005.02 1004.98 1005.06 1005.25 1005.54 1005.93 1006.38 1006.87 1007.37 1007.86 1008.32 1008.74 1009.12 1009.45 1009.76 1010.06 1010.35 1010.65
1008.46 1008.09 1007.85 1007.71 1007.66 1007.67 1007.72 1007.78 1007.84 1007.90 1007.95 1007.98 1008.00 1008.00 1007.98 1007.93 1007.85 1007.73 1007.57 1007.37 1007.12 1006.86 1006.58 1006.31 1006.08 1005.90 1005.79 1005.78 1005.86 1006.03 1006.30 1006.64 1007.03 1007.45 1007.87 1008.28 1008.67 1009.02 1009.34 1009.63 1009.90 1010.16 1010.42 1010.70
1009.06 1008.63 1008.33 1008.14 1008.06 1008.06 1008.11 1008.19 1008.28 1008.38 1008.46 1008.53 1008.57 1008.58 1008.56 1008.50 1008.41 1008.27 1008.10 1007.89 1007.66 1007.41 1007.16 1006.94 1006.74 1006.61 1006.54 1006.56 1006.66 1006.83 1007.08 1007.39 1007.73 1008.08 1008.45 1008.79 1009.11 1009.41 1009.67 1009.92 1010.16 1010.39 1010.63 1010.89
1009.67 1009.21 1008.88 1008.68 1008.58 1008.57 1008.63 1008.72 1008.84 1008.95 1009.05 1009.13 1009.17 1009.18 1009.14 1009.06 1008.94 1008.78 1008.59 1008.37 1008.14 1007.90 1007.69 1007.50 1007.35 1007.27 1007.25 1007.30 1007.43 1007.61 1007.85 1008.13 1008.44 1008.75 1009.06 1009.35 1009.62 1009.86 1010.09 1010.31 1010.52 1010.73 1010.95 1011.19
1010.18 1009.73 1009.40 1009.20 1009.10 1009.10 1009.16 1009.26 1009.38 1009.50 1009.61 1009.68 1009.71 1009.70 1009.64 1009.53 1009.38 1009.19 1008.98 1008.75 1008.53 1008.31 1008.13 1007.98 1007.89 1007.86 1007.88 1007.98 1008.13 1008.33 1008.57 1008.83 1009.10 1009.38 1009.64 1009.89 1010.12 1010.33 1010.52 1010.71 1010.91 1011.11 1011.32 1011.55
1010.48 1010.07 1009.78 1009.59 1009.51 1009.51 1009.58 1009.68 1009.80 1009.92 1010.01 1010.07 1010.08 1010.04 1009.96 1009.82 1009.65 1009.45 1009.23 1009.01 1008.80 1008.62 1008.47 1008.38 1008.33 1008.35 1008.42 1008.55 1008.73 1008.94 1009.17 1009.42 1009.67 1009.91 1010.13 1010.34 1010.53 1010.71 1010.89 1011.07 1011.25 1011.45 1011.66 1011.89
1010.56 1010.21 1009.96 1009.81 1009.75 1009.76 1009.82 1009.92 1010.03 1010.13 1010.20 1010.24 1010.23 1010.17 1010.06 1009.91 1009.73 1009.53 1009.32 1009.12 1008.95 1008.80 1008.71 1008.66 1008.67 1008.73 1008.84 1009.00 1009.19 1009.40 1009.63 1009.85 1010.07 1010.28 1010.47 1010.64 1010.81 1010.97 1011.13 1011.30 1011.48 1011.68 1011.90 1012.13
Thickness
5780 5789 5793 5792 5795 5798 5790 5780 5770 5773 5776 5785 5793 5796 5796 5797 5797 5795 5791 5790 5788 5786 5785 5784 5782 5781 5780 5779 5777 5774 5769 5765 5762 5760 5758 5754 5751 5748 5745 5742 5740 5736 5733 5730
5771 5784 5785 5782 5789 5791 5790 5787 5781 5777 5776 5792 5795 5794 5791 5792 5793 5789 5786 5785 5784 5783 5781 5778 5777 5776 5774 5772 5770 5768 5763 5759 5757 5753 5750 5747 5744 5741 5738 5735 5732 5729 5726 5723
5748 5766 5769 5757 5772 5777 5776 5778 5775 5763 5771 5783 5782 5783 5784 5787 5787 5785 5784 5782 5779 5778 5776 5774 5772 5771 5767 5765 5764 5760 5756 5753 5750 5747 5742 5740 5738 5734 5730 5727 5725 5721 5718 5716
5736 5744 5732 5754 5779 5780 5772 5771 5775 5774 5777 5779 5780 5782 5785 5785 5782 5779 5779 5777 5775 5773 5770 5769 5768 5766 5763 5760 5756 5752 5748 5745 5743 5740 5736 5733 5729 5726 5723 5720 5717 5714 5711 5708
5721 5721 5731 5754 5770 5770 5760 5754 5768 5768 5771 5774 5776 5774 5771 5777 5777 5775 5774 5773 5770 5768 5766 5763 5761 5759 5756 5752 5748 5744 5740 5738 5735 5732 5728 5725 5722 5720 5717 5713 5709 5707 5704 5701
5717 5714 5713 5738 5766 5776 5762 5740 5760 5762 5761 5763 5762 5747 5753 5768 5770 5769 5768 5767 5763 5762 5759 5755 5752 5751 5747 5742 5739 5735 5733 5731 5729 5725 5721 5718 5716 5713 5709 5706 5702 5699 5696 5694
5709 5707 5717 5746 5762 5764 5732 5730 5752 5756 5755 5755 5750 5750 5756 5760 5760 5760 5758 5757 5757 5754 5750 5748 5746 5743 5737 5733 5729 5728 5726 5724 5721 5718 5714 5712 5708 5705 5701 5696 5693 5690 5688 5686
5701 5697 5707 5744 5747 5736 5732 5744 5746 5748 5749 5748 5749 5751 5751 5751 5749 5749 5749 5748 5748 5744 5741 5740 5738 5734 5728 5724 5723 5721 5719 5716 5713 5710 5708 5705 5700 5695 5692 5688 5684 5680 5678 5676
5705 5707 5724 5737 5737 5740 5740 5738 5740 5740 5742 5743 5742 5742 5742 5740 5740 5741 5741 5740 5739 5736 5731 5729 5728 5725 5720 5718 5716 5713 5710 5706 5703 5701 5698 5694 5690 5686 5682 5678 5674 5671 5669 5666
5703 5711 5720 5727 5731 5733 5735 5734 5735 5736 5736 5736 5734 5734 5732 5730 5729 5730 5731 5730 5729 5725 5721 5718 5717 5715 5713 5711 5708 5705 5701 5697 5694 5691 5688 5685 5682 5679 5674 5670 5666 5664 5661 5658
5694 5703 5710 5716 5720 5724 5726 5728 5727 5728 5729 5728 5726 5724 5723 5721 5719 5719 5719 5719 5716 5713 5711 5709 5707 5705 5704 5701 5699 5695 5692 5688 5685 5682 5679 5675 5672 5669 5667 5664 5661 5657 5655 5652
5686 5697 5697 5701 5712 5718 5717 5717 5718 5718 5719 5721 5720 5716 5714 5712 5711 5710 5709 5707 5705 5703 5701 5700 5698 5696 5695 5693 5690 5686 5682 5679 5676 5673 5670 5666 5663 5660 5659 5657 5656 5653 5650 5647
5696 5700 5700 5702 5706 5709 5709 5710 5711 5711 5710 5709 5709 5708 5705 5703 5702 5700 5698 5696 5695 5694 5692 5691 5689 5687 5687 5685 5682 5678 5674 5671 5668 5665 5662 5658 5654 5651 5648 5647 5646 5644 5642 5640
5696 5695 5691 5694 5695 5699 5700 5701 5702 5701 5701 5701 5699 5698 5696 5694 5692 5690 5689 5688 5688 5686 5684 5683 5681 5679 5679 5677 5674 5670 5667 5664 5661 5657 5654 5651 5647 5644 5641 5637 5635 5634 5633 5631
5688 5688 5685 5687 5689 5690 5691 5691 5689 5688 5688 5688 5689 5688 5686 5684 5682 5681 5681 5680 5678 5675 5674 5672 5670 5669 5670 5668 5665 5662 5659 5656 5653 5650 5646 5643 5640 5637 5634 5631 5627 5625 5623 5622
5680 5680 5679 5678 5678 5680 5680 5680 5678 5677 5679 5679 5679 5678 5677 5675 5674 5672 5672 5670 5666 5664 5664 5663 5661 5661 5661 5659 5657 5654 5651 5649 5646 5641 5638 5634 5631 5628 5625 5622 5619 5617 5615 5613
5669 5667 5667 5666 5668 5670 5671 5672 5672 5671 5671 5671 5671 5671 5670 5667 5664 5662 5662 5661 5659 5657 5656 5654 5652 5653 5652 5650 5648 5644 5642 5639 5637 5633 5630 5627 5624 5621 5618 5615 5612 5609 5608 5607
5667 5666 5664 5662 5661 5662 5664 5666 5666 5665 5664 5665 5664 5663 5661 5658 5655 5654 5653 5652 5650 5648 5646 5646 5645 5644 5642 5641 5639 5636 5633 5631 5628 5625 5623 5620 5618 5616 5612 5609 5606 5603 5601 5600
5661 5660 5660 5659 5658 5656 5656 5657 5658 5658 5657 5657 5655 5653 5652 5650 5648 5647 5645 5643 5640 5637 5637 5637 5637 5635 5634 5633 5631 5628 5625 5623 5621 5618 5616 5613 5611 5608 5605 5602 5600 5597 5595 5592
5654 5654 5653 5653 5652 5649 5649 5650 5650 5649 5648 5648 5646 5644 5642 5641 5641 5639 5637 5634 5633 5632 5632 5631 5630 5628 5626 5625 5624 5621 5618 5616 5613 5611 5609 5606 5603 5601 5599 5597 5594 5591 5588 5586
5644 5644 5645 5644 5643 5642 5642 5643 5641 5640 5640 5640 5638 5636 5635 5634 5633 5631 5628 5626 5626 5626 5625 5624 5622 5621 5620 5618 5617 5614 5611 5609 5606 5604 5602 5599 5597 5595 5593 5590 5588 5585 5583 5580
5636 5636 5636 5636 5635 5634 5634 5635 5634 5633 5632 5631 5630 5629 5628 5626 5625 5623 5622 5620 5620 5619 5618 5617 5616 5615 5614 5612 5609 5607 5605 5602 5600 5597 5595 5593 5591 5588 5586 5584 5582 5580 5577 5574
5628 5628 5627 5627 5627 5627 5627 5627 5627 5626 5625 5624 5623 5622 5621 5619 5618 5616 5614 5614 5614 5613 5612 5611 5611 5609 5608 5605 5603 5601 5599 5596 5594 5592 5589 5587 5585 5583 5580 5578 5576 5573 5571 5568
5620 5620 5620 5620 5621 5620 5618 5619 5620 5620 5619 5618 5618 5617 5615 5613 5611 5611 5611 5610 5609 5608 5606 5605 5604 5603 5600 5598 5596 5594 5592 5590 5588 5586 5584 5582 5579 5577 5574 5572 5569 5567 5565 5563
5615 5615 5615 5614 5613 5612 5612 5613 5613 5613 5613 5611 5611 5611 5610 5608 5606 5606 5605 5604 5603 5602 5600 5599 5598 5596 5594 5592 5590 5588 5586 5583 5581 5580 5578 5576 5573 5571 5569 5567 5564 5561 5559 5557
5610 5609 5609 5609 5609 5609 5608 5608 5606 5606 5605 5604 5604 5604 5603 5602 5601 5600 5599 5598 5597 5595 5593 5592 5591 5589 5587 5585 5583 5582 5580 5578 5576 5574 5572 5570 5568 5566 5563 5561 5559 5556 5553 5551
5605 5605 5604 5604 5605 5605 5605 5603 5602 5601 5601 5600 5599 5599 5598 5597 5595 5594 5593 5591 5590 5588 5587 5586 5584 5583 5581 5579 5577 5575 5573 5571 5569 5567 5565 5563 5561 5559 5557 5555 5552 5550 5547 5545